Location: Unspecified
(43.4354°N, 0.0000°E)
Time: 10:04:47
(UTC+00:00)

Transit 4A - All Passes

Search period start: 19 June 2019 00:00
Search period end: 29 June 2019 00:00
Orbit: 862 x 983 km, 66.8° (Epoch: 18 June)

Date Brightness Start Highest point End Pass type
(mag) Time Alt. Az. Time Alt. Az. Time Alt. Az.
19 Jun - 06:53:15 10° ESE 06:54:02 10° E 06:54:47 10° E daylight
19 Jun - 08:32:58 10° SSW 08:39:09 68° ESE 08:45:32 10° NE daylight
19 Jun - 10:20:44 10° W 10:26:06 28° NW 10:31:33 10° NNE daylight
19 Jun - 15:49:12 10° NNW 15:54:02 22° NE 15:58:47 10° E daylight
19 Jun - 17:34:55 10° NNW 17:41:22 87° ENE 17:47:35 10° SSE daylight
19 Jun - 19:23:10 10° WNW 19:26:50 16° WSW 19:30:27 10° SW daylight
20 Jun - 06:59:13 10° SE 07:02:58 17° ESE 07:06:48 10° ENE daylight
20 Jun - 08:42:11 10° SSW 08:48:29 86° WNW 08:54:57 10° NNE daylight
20 Jun - 10:31:03 10° W 10:35:50 22° NW 10:40:40 10° N daylight
20 Jun - 15:58:19 10° NNW 16:03:46 28° NE 16:09:05 10° E daylight
20 Jun - 17:44:20 10° NW 17:50:40 66° WSW 17:56:49 10° SSE daylight
21 Jun - 07:07:03 10° SSE 07:12:00 25° ESE 07:17:03 10° NE daylight
21 Jun - 08:51:40 10° SW 08:57:54 62° NW 09:04:18 10° NNE daylight
21 Jun - 10:41:38 10° WNW 10:45:39 17° NNW 10:49:42 10° N daylight
21 Jun - 14:22:42 10° N 14:24:59 12° NNE 14:27:15 10° NE daylight
21 Jun - 16:07:29 10° NNW 16:13:24 37° NE 16:19:10 10° ESE daylight
21 Jun - 17:53:53 10° NW 17:59:54 45° WSW 18:05:45 10° S daylight
22 Jun - 07:15:28 10° S 07:21:07 37° ESE 07:26:54 10° NE daylight
22 Jun - 09:01:22 10° WSW 09:07:23 45° NW 09:13:33 10° NNE daylight
22 Jun - 10:52:31 10° NW 10:55:33 14° NNW 10:58:37 10° N daylight
22 Jun - 14:31:30 10° N 14:34:57 15° NNE 14:38:22 10° ENE daylight
22 Jun - 16:16:43 10° NNW 16:22:57 51° NE 16:29:01 10° SE daylight
22 Jun - 18:03:36 10° NW 18:09:03 31° WSW 18:14:24 10° SSW daylight
23 Jun - 07:24:14 10° S 07:30:18 53° ESE 07:36:32 10° NE daylight
23 Jun - 09:11:18 10° WSW 09:16:59 33° NW 09:22:46 10° NNE daylight
23 Jun - 11:03:52 10° NW 11:05:33 11° NNW 11:07:14 10° N daylight
23 Jun - 14:40:28 10° N 14:44:49 19° NE 14:49:06 10° ENE daylight
23 Jun - 16:26:00 10° NNW 16:32:24 71° ENE 16:38:37 10° SE daylight
23 Jun - 18:13:35 10° WNW 18:18:07 21° WSW 18:22:35 10° SSW daylight
24 Jun - 05:51:50 10° ESE 05:54:18 12° E 05:56:46 10° ENE daylight
24 Jun - 07:33:18 10° SSW 07:39:34 77° ESE 07:46:01 10° NE daylight
24 Jun - 09:21:28 10° W 09:26:39 25° NW 09:31:54 10° NNE daylight
24 Jun - 14:49:32 10° NNW 14:54:37 24° NE 14:59:35 10° E daylight
24 Jun - 16:35:22 10° NNW 16:41:47 83° WSW 16:47:59 10° SSE daylight
24 Jun - 18:24:12 10° WNW 18:27:07 14° W 18:30:01 10° SW daylight
25 Jun - 05:59:00 10° SSE 06:03:17 19° ESE 06:07:39 10° ENE daylight
25 Jun - 07:42:37 10° SW 07:48:56 77° WNW 07:55:24 10° NNE daylight
25 Jun - 09:31:53 10° W 09:36:25 20° NW 09:40:59 10° N daylight
25 Jun - 13:14:32 10° N 13:15:38 10° NNE 13:16:44 10° NNE daylight
25 Jun - 14:58:41 10° NNW 15:04:18 31° NE 15:09:48 10° ESE daylight
25 Jun - 16:44:50 10° NW 16:51:04 58° WSW 16:57:06 10° SSE daylight
26 Jun - 06:07:05 10° SSE 06:12:20 29° ESE 06:17:42 10° NE daylight
26 Jun - 07:52:11 10° SW 07:58:22 55° NW 08:04:42 10° NNE daylight
26 Jun - 09:42:35 10° WNW 09:46:16 16° NNW 09:50:00 10° N daylight
26 Jun - 13:22:55 10° N 13:25:39 13° NNE 13:28:21 10° NE daylight
26 Jun - 15:07:52 10° NNW 15:13:55 42° NE 15:19:47 10° ESE daylight
26 Jun - 16:54:25 10° NW 17:00:16 40° WSW 17:05:57 10° S daylight
27 Jun - 06:15:38 10° S 06:21:29 42° ESE 06:27:27 10° NE daylight
27 Jun - 08:01:59 10° WSW 08:07:54 40° NW 08:13:56 10° NNE daylight
27 Jun - 09:53:35 10° NW 09:56:12 12° NNW 09:58:51 10° N daylight
27 Jun - 13:31:47 10° N 13:35:34 16° NNE 13:39:19 10° ENE daylight
27 Jun - 15:17:07 10° NNW 15:23:26 57° NE 15:29:32 10° SE daylight
27 Jun - 17:04:13 10° NW 17:09:23 27° WSW 17:14:26 10° SSW daylight
28 Jun - 06:24:31 10° SSW 06:30:41 61° ESE 06:37:01 10° NE daylight
28 Jun - 08:12:00 10° WSW 08:17:30 30° NW 08:23:07 10° NNE daylight
28 Jun - 10:05:23 10° NNW 10:06:13 10° NNW 10:07:05 10° NNW daylight
28 Jun - 13:40:48 10° N 13:45:25 20° NE 13:49:58 10° E daylight
28 Jun - 15:26:26 10° NNW 15:32:51 80° ENE 15:39:04 10° SE daylight
28 Jun - 17:14:22 10° WNW 17:18:26 18° WSW 17:22:25 10° SW daylight
